Flag for U.S.A. Weather past 2 weeks in Tuba City, Arizona, U.S.A.

Now
29 °F

Clear.


Feels Like: 29 °F
Forecast: 41 / 77 °F
Wind: No wind

Location: Grand Canyon National Park Airport

Current Time: Mar 31, 2015 at 4:21:25 AM

Latest Report: Mar 31, 2015 at 3:54 AM


Visibility: 10 mi

Pressure: 30.05 "Hg

Humidity: 69%

Dew point: 20 °F

Location of Tuba CityLocation

Historic Weather in Tuba City — Graph

°F

Tuba City temperature yesterday

Maximum temperature yesterday: 73 °F (at 3:54 PM)
Minimum temperature yesterday: 28 °F (at 6:54 AM)
Average temperature yesterday: 50 °F

Past Weeks' High & Low Weather Summary

 TemperatureHumidityPressure
High73 °F (Mar 30, 3:54 PM)93% (Mar 19, 7:54 AM)30.32 "Hg (Mar 19, 7:54 AM)
Low20 °F (Mar 20, 4:54 AM)8% (Mar 27, 3:54 PM)29.91 "Hg (Mar 19, 5:54 AM)
Average46 °F45%30.09 "Hg
* Reported Mar 16 2:54 AM — Mar 31 2:54 AM, Tuba City, Weather by CustomWeather, © 2015

Note: Actual official high and low records may vary slightly from our data, if they occured in-between our weather recording intervals... More about our weather records

Advertising

Tuba City weather history for previous 24 hours

 ConditionsComfort  
Time TempWeatherWind HumidityBarometerVisibility
2:54 AM
Tue, Mar 31
30 °FClear.No wind66%30.06 "Hg10 mi
1:54 AM32 °FClear.3 mph61%30.08 "Hg8 mi
12:54 AM32 °FClear.No wind61%30.08 "Hg10 mi
11:54 PM
Mon, Mar 30
35 °FClear.No wind54%30.07 "Hg10 mi
10:54 PM38 °FClear.No wind51%30.06 "Hg10 mi
9:54 PM42 °FPassing clouds.No wind43%30.06 "Hg6 mi
8:54 PM44 °FPassing clouds.No wind38%30.11 "Hg9 mi
7:54 PM54 °FClear.No wind24%30.11 "Hg10 mi
6:54 PM68 °FSunny.7 mph11%30.05 "Hg10 mi
5:54 PM69 °FSunny.8 mph10%30.04 "Hg10 mi
4:54 PM71 °FSunny.8 mph10%30.03 "Hg10 mi
3:54 PM73 °FSunny.14 mph10%30.05 "Hg10 mi
2:54 PM71 °FSunny.15 mph12%30.08 "Hg10 mi
1:54 PM69 °FSunny.6 mph13%30.09 "Hg10 mi
12:54 PM69 °FSunny.9 mph14%30.11 "Hg10 mi
11:54 AM68 °FSunny.3 mph15%30.12 "Hg10 mi
10:54 AM64 °FSunny.N/A16%30.13 "Hg10 mi
9:54 AM60 °FSunny.6 mph26%30.13 "Hg10 mi
8:54 AM44 °FSunny.No wind51%30.16 "Hg10 mi
7:54 AM30 °FSunny.3 mph75%30.19 "Hg10 mi
6:54 AM28 °FClear.No wind75%30.13 "Hg10 mi
5:54 AM29 °FClear.No wind75%30.12 "Hg10 mi
4:54 AM30 °FClear.No wind72%30.11 "Hg10 mi
Weather by CustomWeather, © 2015

See weather overviewHow to use our weather pages